Tracking 21676 objects as of 29-Oct-2020
HD Live streaming from Space Station
objects crossing your sky now

ARIANE 1 DEB

Track ARIANE 1 DEB now!
10-day predictions


NORAD ID: 17429
Int'l Code: 1986-019FQ
Perigee: 687.8 km
Apogee: 781.0 km
Inclination: 99.1 °
Period: 99.3 minutes
Semi major axis: 7105 km
RCS: 0.0335 m2 (small)
Launch date: February 22, 1986
Source: France (FR)
Launch site: FRENCH GUIANA (FRGUI)

Note: This is SATELLITE DEBRIS
aabbcc
Your satellite tracking list
Your tracking list is empty




NASA's NSSDC Master Catalog

Two Line Element Set (TLE):
1 17429U 86019FQ  20303.70455091  .00000721  00000-0  19663-3 0  9994
2 17429  99.0840 352.1474 0065554  75.4563 285.3888 14.49503267772072
Source of the keplerian elements: AFSPC